Home > Weather > Auckland > Past weeks

Flag for New Zealand Weather for the Past 2 Weeks in Auckland, New Zealand

Now
68 °F

Partly sunny.


Feels Like: 68 °F
Forecast: 60 / 68 °F
Wind: 8 mph from North

Location: Auckland Airport

Current Time: May 1, 2016 at 5:02:09 PM

Latest Report: May 1, 2016 at 4:00 PM


Visibility: N/A

Pressure: 30.30 "Hg

Humidity: 60%

Dew Point: 54 °F

Location of AucklandLocation

Historic Weather in Auckland — Graph

°F

Auckland Temperature Yesterday

Maximum temperature yesterday: 68 °F (at 1:30 PM)
Minimum temperature yesterday: 55 °F (at 10:00 PM)
Average temperature yesterday: 62 °F

High & Low Weather Summary for the Past Weeks

 TemperatureHumidityPressure
High72 °F (Apr 22, 3:00 PM)100% (Apr 17, 2:30 PM)30.42 "Hg (Apr 17, 2:30 PM)
Low52 °F (Apr 23, 6:30 AM)47% (Apr 22, 3:00 PM)29.86 "Hg (Apr 17, 5:30 PM)
Average62 °F78%30.20 "Hg
* Reported Apr 16 3:30 PM — May 1 3:00 PM, Auckland, Weather by CustomWeather, © 2016

Note: Actual official high and low records may vary slightly from our data, if they occured in-between our weather recording intervals... More about our weather records

Advertising

Auckland Weather History for the Previous 24 Hours

Scroll right to see more
 ConditionsComfort  
Time TempWeatherWind HumidityBarometerVisibility
3:00 PM
Sun, May 1
68 °FPartly sunny.10 mph69%30.30 "HgN/A
2:30 PM68 °FPartly sunny.13 mph64%30.33 "HgN/A
2:00 PM70 °FPassing clouds.12 mph60%30.33 "HgN/A
1:30 PM70 °FPassing clouds.14 mph60%30.33 "HgN/A
1:00 PM68 °FBroken clouds.14 mph60%30.36 "HgN/A
12:30 PM70 °FPartly sunny.12 mph60%30.36 "HgN/A
12:00 PM70 °FBroken clouds.13 mph60%30.36 "HgN/A
11:30 AM70 °FPartly sunny.12 mph64%30.39 "HgN/A
11:00 AM68 °FPartly sunny.13 mph69%30.39 "HgN/A
10:30 AM68 °FPartly sunny.9 mph73%30.39 "HgN/A
10:00 AM61 °FPartly sunny.3 mph88%30.39 "HgN/A
9:30 AM61 °FBroken clouds.2 mph83%30.39 "HgN/A
9:00 AM59 °FCloudy.3 mph94%30.39 "HgN/A
8:30 AM57 °FPartly sunny.5 mph94%30.39 "HgN/A
8:00 AM55 °FPartly sunny.1 mph94%30.39 "HgN/A
7:30 AM54 °FPartly sunny.3 mph94%30.39 "HgN/A
7:00 AM54 °FOvercast.2 mph100%30.36 "HgN/A
6:30 AM55 °FPartly sunny.5 mph94%30.39 "HgN/A
6:00 AM54 °FPartly sunny.3 mph100%30.36 "HgN/A
5:30 AM55 °FPassing clouds.5 mph94%30.36 "HgN/A
5:00 AM54 °FCool.3 mph94%30.36 "HgN/A
4:30 AM55 °FCool.1 mph88%30.36 "HgN/A
4:00 AM55 °FCool.3 mph88%30.36 "HgN/A
3:30 AM54 °FPassing clouds.3 mph94%30.36 "HgN/A
3:00 AM54 °FPassing clouds.1 mph100%30.36 "HgN/A
2:30 AM54 °FCool.1 mph100%30.39 "HgN/A
2:00 AM55 °FPassing clouds.1 mph94%30.39 "HgN/A
1:30 AM55 °FPassing clouds.1 mph94%30.39 "HgN/A
1:00 AM57 °FPassing clouds.1 mph88%30.39 "HgN/A
12:30 AM57 °FOvercast.3 mph88%30.39 "HgN/A
12:00 AM57 °FPassing clouds.5 mph88%30.39 "HgN/A
11:30 PM
Sat, Apr 30
55 °FPassing clouds.1 mph94%30.39 "HgN/A
11:00 PM55 °FCool.3 mph94%30.39 "HgN/A
10:30 PM55 °FCool.5 mph88%30.39 "HgN/A
10:00 PM55 °FCool.3 mph94%30.39 "HgN/A
9:30 PM57 °FPassing clouds.1 mph88%30.39 "HgN/A
9:00 PM59 °FPassing clouds.2 mph88%30.36 "HgN/A
8:30 PM59 °FCool.3 mph82%30.36 "HgN/A
8:00 PM59 °FPassing clouds.5 mph82%30.36 "HgN/A
7:30 PM61 °FPassing clouds.3 mph77%30.36 "HgN/A
7:00 PM63 °FOvercast.2 mph73%30.36 "HgN/A
6:30 PM61 °FPassing clouds.3 mph72%30.33 "HgN/A
6:00 PM61 °FCool.5 mph72%30.33 "HgN/A
5:30 PM64 °FMild.9 mph64%30.30 "HgN/A
5:00 PM66 °FPassing clouds.12 mph56%30.27 "HgN/A
Weather by CustomWeather, © 2016

See weather overviewHow to use our weather pages